Flag for Ireland Weather past 2 weeks in Cork, Ireland

Now
34 °F

Passing clouds.


Feels Like: 29 °F
Forecast: N/A
Wind: 5 mph from Southwest

Location: Cork Airport

Current Time: Feb 26, 2015 at 11:07:18 PM

Latest Report: Feb 26, 2015 at 10:00 PM


Visibility: 13 mi

Pressure: 30.13 "Hg

Humidity: 92%

Dew point: 32 °F

Location of CorkLocation

Historic Weather in Cork — Graph

°F

Cork temperature yesterday

Maximum temperature yesterday: 56 °F (at 1:00 PM)
Minimum temperature yesterday: 45 °F (at 12:00 AM)
Average temperature yesterday: 51 °F

Past Weeks' High & Low Weather Summary

 TemperatureHumidityPressure
High56 °F (Feb 25, 1:00 PM)100% (Feb 13, 5:00 AM)30.66 "Hg (Feb 13, 5:00 AM)
Low33 °F (Feb 23, 4:00 AM)63% (Feb 26, 1:00 PM)29.15 "Hg (Feb 23, 1:00 PM)
Average42 °F90%29.86 "Hg
* Reported Feb 11 9:00 PM — Feb 26 9:00 PM, Cork, Weather by CustomWeather, © 2015

Note: Actual official high and low records may vary slightly from our data, if they occured in-between our weather recording intervals... More about our weather records

Advertising

Cork weather history for previous 24 hours

 ConditionsComfort  
Time TempWeatherWind HumidityBarometerVisibility
9:00 PM
Thu, Feb 26
35 °FPassing clouds.3 mph92%30.11 "Hg12 mi
8:00 PM35 °FPassing clouds.5 mph92%30.11 "Hg16 mi
7:00 PM36 °FPassing clouds.6 mph90%30.09 "Hg16 mi
6:00 PM37 °FPassing clouds.7 mph87%30.08 "Hg16 mi
5:00 PM41 °FPassing clouds.10 mph71%30.06 "Hg12 mi
4:00 PM41 °FSprinkles. Partly sunny.7 mph77%30.06 "Hg12 mi
3:00 PM41 °FPartly sunny.12 mph76%30.05 "Hg16 mi
2:00 PM43 °FSprinkles. Partly sunny.9 mph64%30.03 "Hg16 mi
1:00 PM45 °FPartly sunny.10 mph63%30.02 "Hg12 mi
12:00 PM42 °FScattered clouds.9 mph74%30.03 "Hg16 mi
11:00 AM42 °FScattered clouds.8 mph73%30.01 "Hg16 mi
10:00 AM41 °FOvercast.10 mph84%29.99 "Hg16 mi
9:00 AM42 °FPartly sunny.10 mph82%29.95 "Hg12 mi
8:00 AM43 °FSprinkles. Overcast.8 mph88%29.91 "Hg12 mi
7:00 AM44 °FOvercast.10 mph87%29.86 "Hg16 mi
6:00 AM45 °FOvercast.12 mph93%29.83 "Hg12 mi
2:00 AM50 °FLight rain. Low clouds.9 mph100%29.83 "Hg4 mi
1:00 AM51 °FLight rain. Low clouds.12 mph100%29.84 "Hg12 mi
12:00 AM51 °FLight rain. Low clouds.13 mph100%29.86 "Hg12 mi
11:00 PM
Wed, Feb 25
51 °FLight rain. Low clouds.12 mph99%29.90 "Hg12 mi
Weather by CustomWeather, © 2015

See weather overviewHow to use our weather pages